Flag for Azerbaijan Weather past 2 weeks in Ganja, Azerbaijan

Now
46 °F

Passing clouds.


Feels Like: 46 °F
Forecast: 44 / 60 °F
Wind: 2 mph from East

Location: Gyanca Airport

Current Time: Apr 1, 2015 at 9:39:51 PM

Latest Report: Apr 1, 2015 at 9:00 PM


Visibility: N/A

Pressure: 29.89 "Hg

Humidity: 87%

Dew point: 43 °F

Location of GanjaLocation

Historic Weather in Ganja — Graph

°F

Ganja temperature yesterday

Maximum temperature yesterday: 52 °F (at 2:30 PM)
Minimum temperature yesterday: 36 °F (at 12:00 AM)
Average temperature yesterday: 43 °F

Past Weeks' High & Low Weather Summary

 TemperatureHumidityPressure
High64 °F (Mar 27, 3:00 PM)100% (Mar 18, 4:30 AM)30.42 "Hg (Mar 18, 4:30 AM)
Low34 °F (Mar 30, 10:00 PM)33% (Mar 24, 2:00 PM)29.83 "Hg (Mar 21, 3:00 PM)
Average46 °F80%30.09 "Hg
* Reported Mar 17 7:00 PM — Apr 1 8:30 PM, Ganja, Weather by CustomWeather, © 2015

Note: Actual official high and low records may vary slightly from our data, if they occured in-between our weather recording intervals... More about our weather records

Advertising

Ganja weather history for previous 24 hours

 ConditionsComfort  
Time TempWeatherWind HumidityBarometerVisibility
8:30 PM
Wed, Apr 1
48 °FPassing clouds.3 mph82%29.86 "HgN/A
8:00 PM50 °FPassing clouds.3 mph76%29.86 "HgN/A
7:30 PM50 °FScattered clouds.2 mph76%29.86 "HgN/A
7:00 PM50 °FScattered clouds.2 mph76%29.86 "HgN/A
6:30 PM50 °FPartly sunny.5 mph76%29.89 "HgN/A
6:00 PM50 °FPartly sunny.3 mph76%29.86 "HgN/A
5:30 PM50 °FPartly sunny.3 mph76%29.89 "HgN/A
5:00 PM50 °FPartly sunny.3 mph76%29.89 "HgN/A
4:30 PM50 °FPartly sunny.3 mph76%29.89 "HgN/A
4:00 PM50 °FPartly sunny.5 mph76%29.89 "HgN/A
3:30 PM48 °FPartly sunny.3 mph82%29.89 "HgN/A
3:00 PM46 °FPartly sunny.2 mph100%29.89 "Hg5 mi
2:30 PM45 °FPartly sunny.No wind100%29.92 "Hg4 mi
2:00 PM45 °FFog.No wind93%29.92 "Hg2 mi
1:30 PM43 °FFog.1 mph93%29.92 "Hg2 mi
1:00 PM41 °FFog.6 mph100%29.95 "Hg2 mi
12:30 PM41 °FFog.5 mph100%29.95 "Hg2 mi
12:00 PM41 °FFog.5 mph100%29.95 "Hg2 mi
11:30 AM41 °FFog.6 mph100%29.95 "Hg1 mi
11:00 AM41 °FFog.8 mph100%29.92 "Hg1 mi
10:30 AM41 °FFog.8 mph100%29.92 "Hg0 mi
10:00 AM39 °FFog.6 mph100%29.92 "Hg0 mi
9:30 AM39 °FFog.6 mph100%29.95 "Hg0 mi
9:00 AM39 °FFog.7 mph100%29.95 "Hg0 mi
8:30 AM39 °FFog.8 mph100%29.92 "Hg0 mi
8:00 AM39 °FFog.6 mph100%29.92 "Hg0 mi
7:30 AM39 °FFog.8 mph100%29.92 "Hg0 mi
7:00 AM39 °FFog.8 mph100%29.92 "Hg0 mi
6:30 AM39 °FFog.8 mph100%29.92 "Hg0 mi
6:00 AM39 °FFog.10 mph100%29.92 "Hg0 mi
5:30 AM39 °FFog.9 mph100%29.92 "Hg1 mi
5:00 AM39 °FFog.12 mph100%29.92 "Hg1 mi
4:30 AM41 °FFog.12 mph93%29.92 "Hg1 mi
4:00 AM41 °FFog.13 mph93%29.92 "Hg1 mi
3:30 AM41 °FFog.12 mph100%29.92 "Hg1 mi
3:00 AM41 °FFog.13 mph100%29.95 "Hg1 mi
2:30 AM41 °FFog.13 mph100%29.95 "Hg1 mi
2:00 AM43 °FFog.12 mph93%29.92 "Hg1 mi
1:30 AM43 °FFog.10 mph100%29.92 "Hg3 mi
1:00 AM45 °FLow clouds.10 mph87%29.92 "HgN/A
12:30 AM45 °FLow clouds.10 mph93%29.95 "HgN/A
12:00 AM45 °FOvercast.13 mph87%29.92 "HgN/A
11:30 PM
Tue, Mar 31
45 °FOvercast.12 mph87%29.92 "HgN/A
11:00 PM45 °FOvercast.12 mph87%29.92 "HgN/A
10:30 PM45 °FOvercast.9 mph87%29.92 "HgN/A
10:00 PM45 °FPartly sunny.10 mph87%29.92 "HgN/A
9:30 PM45 °FPartly sunny.12 mph87%29.89 "HgN/A
9:00 PM45 °FScattered clouds.12 mph87%29.89 "HgN/A
Weather by CustomWeather, © 2015

See weather overviewHow to use our weather pages